DMSP 5D-2 F13 DEB, 42286

Orbit data source: Space-Track

DMSP 5D-2 F13 DEB, 42286 is space debris in SSO originally from a launch on Fri, 24 Mar 1995 UTC launched from the Air Force Western Test Range (AFWTR). Debris objects in space refer to the collection of defunct objects orbiting the Earth. Examples of debris include non-operational satellites, rocket bodies, and fragments generated from explosions, collisions, or faulty payload assembly.

Loading next visibility...
Identifier
42286, 1995-015HC
Orbit
SSO
Country
Flag of USUS
Related business
Manufacturer
Unknown
Mission
Spacecraft
Bus & Motor
Unknown
Mass
Unknown
Launch date (UTC)
1995-03-24 (31 years ago)
Launch vehicle
Unknown
Launch site
Air Force Western Test Range (AFWTR)
Object type
Payload
Rocket body
Debris
Shape & HBR
Unknown shape, 0.1 m
Radar Cross Section
Small (<0.1 m²)

Expand to show TLE details & history
Last TLE update: 4 weeks ago

TLE from 4 weeks ago
0 DMSP 5D-2 F13 DEB
1 42286U 95015HC  25264.63033738  .00005921  00000-0  26483-2 0  9996
2 42286  98.9173 233.8879 0054532 124.5067 236.1277 14.22183184532568
Epoch: 2025-09-21T15:07Z
TLE epoch observation values (Epoch: 2025-09-21T15:07:41.149Z)
Latitude
0.00001°
Longitude
6.22033°
Altitude
842.912 km
Speed
7.42 km/s
True Right ascension
15h 35m 33s
True Declination
0° 00' 00"
Sunlit
Object was in daylight at epoch
Visualization orbit readout
Latitude
Unknown
Longitude
Unknown
Altitude
Unknown
Speed
Unknown
Apparent Right ascension
Unknown
Apparent Declination
Unknown
Sunlit
N/A
Visualization observer readout
Local Sidereal Time
04:26:22
Azimuth
Unknown
Elevation
Unknown
Doppler factor
Unknown
Orbital elements
Apogee altitude
854.371 km
Perigee altitude
775.918 km
Semi-major axis
7,193.282 km
Eccentricity
0.00545
Inclination
98.9173°
RAAN
233.8879°
Arg. of periapsis
124.5067°
True anomaly
235.61084°
Mean anomaly
236.1277°
Eccentric anomaly
235.86907°
Mean motion
3.55756 °/min
Orbital period
101.19 mins
BSTAR
0.0026483

Documentation

Showing up to 5 results
|